WZZ3PA EPWA-EKCH

Flight info

Callsign WZZ3PA
Flight time 1h 15m
Altitude 24000
Route OLILA L621 LUSID DCT ROE M743 TIDVU
Aircraft A320/M-VGDW/C

Departure

Time 2026-05-04 18:22
Airport Warsaw Chopin Airport (EPWA)

Arrival

Time 2026-05-04 19:37
Airport Copenhagen Kastrup Airport (EKCH)
Time Latitude Longitude Altitude Speed Heading
2026-05-04 18:05 52.16854 20.96993 361 ft 0 kts 62°
2026-05-04 18:17 52.16870 20.97045 363 ft 10 kts 62°
2026-05-04 18:18 52.16832 20.97164 361 ft 17 kts 150°
2026-05-04 18:18 52.16774 20.97211 360 ft 9 kts 158°
2026-05-04 18:18 52.16705 20.97228 361 ft 11 kts 178°
2026-05-04 18:18 52.16620 20.97243 360 ft 14 kts 151°
2026-05-04 18:19 52.16513 20.97590 360 ft 20 kts 114°
2026-05-04 18:19 52.16475 20.97728 357 ft 18 kts 114°
2026-05-04 18:19 52.16410 20.97804 359 ft 4 kts 181°
2026-05-04 18:20 52.16385 20.97784 360 ft 0 kts 207°
2026-05-04 18:20 52.16384 20.97784 359 ft 1 kts 207°
2026-05-04 18:21 52.16352 20.97756 356 ft 10 kts 207°
2026-05-04 18:21 52.16311 20.97656 356 ft 12 kts 275°
2026-05-04 18:21 52.16348 20.97519 358 ft 20 kts 294°
2026-05-04 18:21 52.16528 20.96881 361 ft 102 kts 295°
2026-05-04 18:22 52.16904 20.95498 376 ft 161 kts 293°
2026-05-04 18:22 52.17408 20.93746 897 ft 172 kts 293°
2026-05-04 18:22 52.17901 20.92011 1561 ft 170 kts 291°
2026-05-04 18:22 52.18578 20.90296 1774 ft 196 kts 318°
2026-05-04 18:23 52.19862 20.89196 1972 ft 223 kts 333°
2026-05-04 18:23 52.21365 20.88123 2287 ft 247 kts 330°
2026-05-04 18:23 52.22740 20.86358 2804 ft 257 kts 311°
2026-05-04 18:23 52.24100 20.84415 3627 ft 263 kts 321°
2026-05-04 18:24 52.25628 20.82734 4481 ft 267 kts 325°
2026-05-04 18:24 52.27213 20.81135 5313 ft 270 kts 326°
2026-05-04 18:24 52.28818 20.79517 6152 ft 272 kts 325°
2026-05-04 18:24 52.30429 20.77849 6922 ft 276 kts 324°
2026-05-04 18:25 52.32045 20.76127 7709 ft 278 kts 323°
2026-05-04 18:25 52.33662 20.74364 8490 ft 280 kts 323°
2026-05-04 18:25 52.35284 20.72569 9258 ft 283 kts 322°
2026-05-04 18:25 52.36919 20.70742 9995 ft 286 kts 322°
2026-05-04 18:26 52.38611 20.68838 10309 ft 305 kts 322°
2026-05-04 18:26 52.40420 20.66792 10458 ft 327 kts 322°
2026-05-04 18:26 52.42331 20.64636 10912 ft 337 kts 322°
2026-05-04 18:26 52.44275 20.62454 11524 ft 341 kts 322°
2026-05-04 18:27 52.46243 20.60246 12165 ft 344 kts 321°
2026-05-04 18:27 52.48228 20.58019 12801 ft 347 kts 321°
2026-05-04 18:27 52.50235 20.55765 13439 ft 351 kts 321°
2026-05-04 18:27 52.52259 20.53487 14037 ft 354 kts 321°
2026-05-04 18:28 52.54286 20.51199 14600 ft 357 kts 321°
2026-05-04 18:28 52.56346 20.48871 15155 ft 360 kts 321°
2026-05-04 18:28 52.58419 20.46523 15706 ft 363 kts 321°
2026-05-04 18:28 52.60502 20.44159 16253 ft 365 kts 321°
2026-05-04 18:29 52.62603 20.41771 16802 ft 368 kts 322°
2026-05-04 18:29 52.64725 20.39358 17359 ft 371 kts 322°
2026-05-04 18:29 52.66830 20.36962 17911 ft 374 kts 322°
2026-05-04 18:29 52.68978 20.34513 18444 ft 377 kts 321°
2026-05-04 18:30 52.72765 20.28589 19491 ft 377 kts 308°
2026-05-04 18:30 52.74518 20.25356 20029 ft 379 kts 308°
2026-05-04 18:30 52.76281 20.22105 20564 ft 381 kts 308°
2026-05-04 18:31 52.78056 20.18826 21076 ft 383 kts 308°
2026-05-04 18:31 52.79849 20.15513 21593 ft 386 kts 308°
2026-05-04 18:31 52.81643 20.12185 22090 ft 388 kts 308°
2026-05-04 18:31 52.83383 20.08840 22563 ft 390 kts 307°
2026-05-04 18:32 52.85142 20.05359 23050 ft 392 kts 306°
2026-05-04 18:32 52.86874 20.01887 23514 ft 394 kts 306°
2026-05-04 18:32 52.88624 19.98362 23828 ft 396 kts 306°
2026-05-04 18:32 52.90353 19.94880 23909 ft 392 kts 306°
2026-05-04 18:33 52.92070 19.91441 23928 ft 388 kts 306°
2026-05-04 18:33 52.93805 19.87979 23928 ft 387 kts 306°
2026-05-04 18:33 52.95510 19.84581 23926 ft 386 kts 306°
2026-05-04 18:33 52.97241 19.81130 23929 ft 386 kts 306°
2026-05-04 18:34 52.98955 19.77709 23928 ft 386 kts 306°
2026-05-04 18:34 53.00671 19.74270 23931 ft 386 kts 306°
2026-05-04 18:34 53.02334 19.70931 23926 ft 373 kts 306°
2026-05-04 18:34 53.03958 19.67671 23931 ft 360 kts 306°
2026-05-04 18:35 53.05538 19.64495 23933 ft 355 kts 306°
2026-05-04 18:35 53.07146 19.61381 23932 ft 355 kts 308°
2026-05-04 18:35 53.08835 19.58393 23931 ft 355 kts 310°
2026-05-04 18:35 53.10578 19.55463 23934 ft 356 kts 311°
2026-05-04 18:36 53.12334 19.52568 23933 ft 355 kts 311°
2026-05-04 18:36 53.14087 19.49674 23937 ft 355 kts 311°
2026-05-04 18:36 53.15830 19.46759 23934 ft 355 kts 310°
2026-05-04 18:36 53.17564 19.43824 23938 ft 354 kts 310°
2026-05-04 18:37 53.19284 19.40879 23941 ft 354 kts 310°
2026-05-04 18:37 53.21001 19.37926 23943 ft 354 kts 310°
2026-05-04 18:37 53.22706 19.34992 23944 ft 354 kts 309°
2026-05-04 18:37 53.24393 19.31950 23945 ft 353 kts 308°
2026-05-04 18:38 53.26003 19.28895 23949 ft 352 kts 307°
2026-05-04 18:38 53.27600 19.25789 23953 ft 352 kts 307°
2026-05-04 18:38 53.29189 19.22677 23952 ft 352 kts 307°
2026-05-04 18:38 53.30782 19.19559 23957 ft 352 kts 307°
2026-05-04 18:39 53.32375 19.16453 23958 ft 352 kts 307°
2026-05-04 18:39 53.33974 19.13354 23958 ft 352 kts 307°
2026-05-04 18:39 53.35576 19.10260 23962 ft 352 kts 307°
2026-05-04 18:39 53.37176 19.07169 23961 ft 351 kts 307°
2026-05-04 18:40 53.38780 19.04073 23968 ft 351 kts 307°
2026-05-04 18:40 53.40380 19.00986 23965 ft 351 kts 307°
2026-05-04 18:40 53.41982 18.97888 23967 ft 351 kts 307°
2026-05-04 18:40 53.43566 18.94819 23969 ft 351 kts 307°
2026-05-04 18:41 53.45169 18.91706 23972 ft 351 kts 307°
2026-05-04 18:41 53.46754 18.88621 23969 ft 351 kts 307°
2026-05-04 18:41 53.48356 18.85493 23973 ft 350 kts 307°
2026-05-04 18:41 53.49934 18.82408 23975 ft 350 kts 307°
2026-05-04 18:42 53.51524 18.79295 23972 ft 350 kts 306°
2026-05-04 18:42 53.52965 18.75998 23970 ft 347 kts 300°
2026-05-04 18:42 53.54287 18.72635 23973 ft 347 kts 300°
2026-05-04 18:42 53.55615 18.69268 23964 ft 347 kts 300°
2026-05-04 18:43 53.56959 18.65860 23965 ft 347 kts 300°
2026-05-04 18:43 53.58281 18.62497 23969 ft 347 kts 300°
2026-05-04 18:43 53.59614 18.59098 23972 ft 347 kts 300°
2026-05-04 18:43 53.60939 18.55708 23976 ft 347 kts 300°
2026-05-04 18:44 53.62275 18.52288 23978 ft 347 kts 300°
2026-05-04 18:44 53.63161 18.50024 23975 ft 347 kts 300°
2026-05-04 18:44 53.64918 18.45542 23976 ft 347 kts 300°
2026-05-04 18:44 53.66251 18.42135 23981 ft 346 kts 299°
2026-05-04 18:45 53.67581 18.38722 23981 ft 346 kts 299°
2026-05-04 18:45 53.68887 18.35359 23976 ft 346 kts 299°
2026-05-04 18:45 53.70219 18.31926 23975 ft 346 kts 299°
2026-05-04 18:45 53.71525 18.28551 23980 ft 346 kts 299°
2026-05-04 18:46 53.72850 18.25125 23983 ft 346 kts 299°
2026-05-04 18:46 53.74159 18.21743 23982 ft 346 kts 299°
2026-05-04 18:46 53.75467 18.18352 23983 ft 346 kts 299°
2026-05-04 18:46 53.76780 18.14951 23984 ft 346 kts 299°
2026-05-04 18:47 53.78098 18.11534 23985 ft 346 kts 299°
2026-05-04 18:47 53.79404 18.08130 23989 ft 346 kts 298°
2026-05-04 18:47 53.80708 18.04724 23985 ft 345 kts 298°
2026-05-04 18:47 53.82022 18.01290 23987 ft 345 kts 298°
2026-05-04 18:48 53.83322 17.97894 23988 ft 345 kts 298°
2026-05-04 18:48 53.84633 17.94470 23994 ft 345 kts 298°
2026-05-04 18:48 53.85926 17.91096 23994 ft 345 kts 298°
2026-05-04 18:48 53.87237 17.87669 23994 ft 345 kts 298°
2026-05-04 18:49 53.88543 17.84251 23995 ft 344 kts 298°
2026-05-04 18:49 53.89829 17.80868 23995 ft 344 kts 298°
2026-05-04 18:49 53.91131 17.77435 23995 ft 344 kts 298°
2026-05-04 18:49 53.92420 17.74040 23996 ft 344 kts 298°
2026-05-04 18:50 53.93719 17.70615 23998 ft 344 kts 298°
2026-05-04 18:50 53.95000 17.67224 23999 ft 343 kts 298°
2026-05-04 18:50 53.96292 17.63799 24003 ft 343 kts 298°
2026-05-04 18:50 53.97573 17.60396 24004 ft 343 kts 298°
2026-05-04 18:51 53.98869 17.56950 24006 ft 342 kts 298°
2026-05-04 18:51 54.00150 17.53537 24006 ft 342 kts 297°
2026-05-04 18:51 54.01420 17.50153 24005 ft 342 kts 298°
2026-05-04 18:51 54.02698 17.46753 24005 ft 342 kts 298°
2026-05-04 18:52 54.03987 17.43321 24004 ft 342 kts 297°
2026-05-04 18:52 54.05257 17.39933 24005 ft 341 kts 297°
2026-05-04 18:52 54.06524 17.36544 24006 ft 341 kts 297°
2026-05-04 18:52 54.07804 17.33111 24007 ft 341 kts 297°
2026-05-04 18:53 54.09078 17.29689 24012 ft 341 kts 297°
2026-05-04 18:53 54.10347 17.26284 24006 ft 341 kts 297°
2026-05-04 18:53 54.11616 17.22875 24010 ft 340 kts 297°
2026-05-04 18:53 54.12881 17.19468 24007 ft 340 kts 297°
2026-05-04 18:54 54.14143 17.16060 24006 ft 340 kts 297°
2026-05-04 18:54 54.15403 17.12649 24005 ft 340 kts 297°
2026-05-04 18:54 54.16663 17.09235 24010 ft 340 kts 297°
2026-05-04 18:54 54.17922 17.05827 24006 ft 339 kts 297°
2026-05-04 18:55 54.19165 17.02464 24011 ft 339 kts 297°
2026-05-04 18:55 54.21681 16.95643 24011 ft 339 kts 297°
2026-05-04 18:55 54.22933 16.92236 24017 ft 339 kts 296°
2026-05-04 18:56 54.24182 16.88825 24012 ft 338 kts 296°
2026-05-04 18:56 54.25488 16.85467 24015 ft 339 kts 299°
2026-05-04 18:56 54.26881 16.82203 24016 ft 340 kts 301°
2026-05-04 18:56 54.28320 16.78984 24007 ft 340 kts 302°
2026-05-04 18:57 54.29768 16.75785 24014 ft 340 kts 302°
2026-05-04 18:57 54.31208 16.72581 24017 ft 340 kts 301°
2026-05-04 18:57 54.32641 16.69360 24014 ft 339 kts 301°
2026-05-04 18:57 54.34061 16.66135 24011 ft 339 kts 301°
2026-05-04 18:58 54.35473 16.62894 24009 ft 339 kts 301°
2026-05-04 18:58 54.36876 16.59655 24004 ft 339 kts 301°
2026-05-04 18:58 54.38279 16.56407 24011 ft 339 kts 300°
2026-05-04 18:58 54.39683 16.53156 24013 ft 339 kts 301°
2026-05-04 18:59 54.41086 16.49912 24017 ft 339 kts 301°
2026-05-04 18:59 54.42488 16.46666 24004 ft 339 kts 301°
2026-05-04 18:59 54.43891 16.43417 24006 ft 338 kts 301°
2026-05-04 18:59 54.45293 16.40169 24005 ft 338 kts 300°
2026-05-04 19:00 54.46689 16.36926 24002 ft 338 kts 300°
2026-05-04 19:00 54.48076 16.33696 24009 ft 338 kts 300°
2026-05-04 19:00 54.49479 16.30432 24006 ft 338 kts 300°
2026-05-04 19:00 54.50875 16.27181 24005 ft 338 kts 300°
2026-05-04 19:01 54.52272 16.23922 24006 ft 338 kts 300°
2026-05-04 19:01 54.53664 16.20670 24008 ft 337 kts 300°
2026-05-04 19:01 54.55056 16.17416 24007 ft 337 kts 300°
2026-05-04 19:01 54.56446 16.14164 24010 ft 337 kts 300°
2026-05-04 19:02 54.57837 16.10912 24011 ft 337 kts 300°
2026-05-04 19:02 54.59224 16.07656 24010 ft 336 kts 300°
2026-05-04 19:02 54.60604 16.04401 24005 ft 336 kts 300°
2026-05-04 19:02 54.61981 16.01149 24008 ft 336 kts 300°
2026-05-04 19:03 54.63345 15.97930 24005 ft 336 kts 300°
2026-05-04 19:03 54.64275 15.95735 24005 ft 336 kts 300°
2026-05-04 19:03 54.66105 15.91405 24006 ft 335 kts 300°
2026-05-04 19:03 54.67486 15.88134 24006 ft 335 kts 300°
2026-05-04 19:04 54.68401 15.85967 24002 ft 335 kts 300°
2026-05-04 19:04 54.69763 15.82740 24007 ft 335 kts 300°
2026-05-04 19:04 54.71581 15.78413 24002 ft 334 kts 300°
2026-05-04 19:04 54.72503 15.76213 24000 ft 334 kts 300°
2026-05-04 19:05 54.73866 15.72957 23999 ft 334 kts 300°
2026-05-04 19:05 54.75221 15.69699 23993 ft 334 kts 299°
2026-05-04 19:05 54.76571 15.66434 23998 ft 333 kts 299°
2026-05-04 19:05 54.77919 15.63164 23994 ft 333 kts 299°
2026-05-04 19:06 54.79266 15.59895 23992 ft 333 kts 299°
2026-05-04 19:06 54.80593 15.56668 23992 ft 333 kts 299°
2026-05-04 19:06 54.81939 15.53396 23991 ft 333 kts 299°
2026-05-04 19:06 54.83290 15.50115 23988 ft 333 kts 299°
2026-05-04 19:07 54.84628 15.46865 23986 ft 333 kts 299°
2026-05-04 19:07 54.85987 15.43554 23988 ft 333 kts 299°
2026-05-04 19:07 54.87317 15.40298 23989 ft 333 kts 299°
2026-05-04 19:07 54.88663 15.36997 23989 ft 333 kts 299°
2026-05-04 19:08 54.89986 15.33752 23987 ft 333 kts 299°
2026-05-04 19:08 54.91319 15.30456 23986 ft 332 kts 297°
2026-05-04 19:08 54.92420 15.26975 23948 ft 328 kts 291°
2026-05-04 19:08 54.93416 15.23411 23644 ft 326 kts 291°
2026-05-04 19:09 54.94403 15.19868 23346 ft 325 kts 291°
2026-05-04 19:09 54.95391 15.16324 23015 ft 324 kts 291°
2026-05-04 19:09 54.96374 15.12789 22680 ft 323 kts 291°
2026-05-04 19:09 54.97354 15.09260 22353 ft 322 kts 291°
2026-05-04 19:10 54.98325 15.05757 22029 ft 321 kts 291°
2026-05-04 19:10 54.99284 15.02297 21718 ft 320 kts 291°
2026-05-04 19:10 55.00251 14.98808 21395 ft 319 kts 291°
2026-05-04 19:10 55.01215 14.95322 21095 ft 319 kts 291°
2026-05-04 19:11 55.02175 14.91843 20786 ft 318 kts 291°
2026-05-04 19:11 55.03132 14.88370 20481 ft 317 kts 292°
2026-05-04 19:11 55.04083 14.84904 20177 ft 316 kts 292°
2026-05-04 19:11 55.05029 14.81447 19881 ft 316 kts 292°
2026-05-04 19:12 55.05975 14.77990 19585 ft 315 kts 292°
2026-05-04 19:12 55.07905 14.71127 19004 ft 315 kts 294°
2026-05-04 19:12 55.08908 14.67738 18721 ft 314 kts 294°
2026-05-04 19:13 55.09918 14.64355 18437 ft 313 kts 294°
2026-05-04 19:13 55.10922 14.60984 18144 ft 313 kts 294°
2026-05-04 19:13 55.11921 14.57615 17820 ft 312 kts 294°
2026-05-04 19:13 55.12911 14.54263 17501 ft 310 kts 294°
2026-05-04 19:14 55.13896 14.50918 17190 ft 308 kts 294°
2026-05-04 19:14 55.14871 14.47587 16926 ft 307 kts 294°
2026-05-04 19:14 55.15838 14.44266 16667 ft 306 kts 294°
2026-05-04 19:14 55.16808 14.40918 16387 ft 310 kts 294°
2026-05-04 19:15 55.17782 14.37557 16033 ft 308 kts 294°
2026-05-04 19:15 55.18750 14.34218 15785 ft 307 kts 294°
2026-05-04 19:15 55.19714 14.30883 15553 ft 307 kts 294°
2026-05-04 19:15 55.20674 14.27561 15296 ft 305 kts 294°
2026-05-04 19:16 55.21632 14.24253 15048 ft 304 kts 294°
2026-05-04 19:16 55.22587 14.20957 14784 ft 303 kts 294°
2026-05-04 19:16 55.23535 14.17673 14472 ft 301 kts 294°
2026-05-04 19:16 55.24474 14.14408 14158 ft 300 kts 294°
2026-05-04 19:17 55.25408 14.11146 13851 ft 298 kts 294°
2026-05-04 19:17 55.26338 14.07902 13512 ft 297 kts 294°
2026-05-04 19:17 55.27265 14.04673 13168 ft 296 kts 294°
2026-05-04 19:17 55.28188 14.01455 12822 ft 295 kts 294°
2026-05-04 19:18 55.29094 13.98291 12499 ft 293 kts 294°
2026-05-04 19:18 55.30020 13.95053 12187 ft 293 kts 294°
2026-05-04 19:18 55.30917 13.91909 11874 ft 292 kts 294°
2026-05-04 19:18 55.31823 13.88727 11581 ft 291 kts 294°
2026-05-04 19:19 55.32725 13.85557 11284 ft 290 kts 294°
2026-05-04 19:19 55.33623 13.82396 10983 ft 289 kts 294°
2026-05-04 19:19 55.34519 13.79246 10685 ft 288 kts 294°
2026-05-04 19:19 55.35409 13.76110 10419 ft 287 kts 294°
2026-05-04 19:20 55.36297 13.72969 10175 ft 286 kts 294°
2026-05-04 19:20 55.37179 13.69841 9935 ft 284 kts 294°
2026-05-04 19:20 55.38041 13.66778 9675 ft 274 kts 294°
2026-05-04 19:20 55.38878 13.63804 9405 ft 273 kts 294°
2026-05-04 19:21 55.39743 13.60705 9154 ft 286 kts 294°
2026-05-04 19:21 55.40624 13.57564 8887 ft 287 kts 294°
2026-05-04 19:21 55.41384 13.54343 8620 ft 284 kts 285°
2026-05-04 19:21 55.41958 13.51019 8367 ft 283 kts 285°
2026-05-04 19:22 55.42536 13.47689 8113 ft 282 kts 285°
2026-05-04 19:22 55.43102 13.44430 7856 ft 281 kts 285°
2026-05-04 19:22 55.43666 13.41167 7601 ft 275 kts 285°
2026-05-04 19:22 55.44215 13.37975 7373 ft 269 kts 285°
2026-05-04 19:23 55.44750 13.34851 7148 ft 263 kts 285°
2026-05-04 19:23 55.45276 13.31790 6921 ft 258 kts 285°
2026-05-04 19:23 55.45767 13.28768 6704 ft 255 kts 280°
2026-05-04 19:23 55.45899 13.25671 6474 ft 253 kts 266°
2026-05-04 19:24 55.45717 13.22588 6221 ft 253 kts 264°
2026-05-04 19:24 55.45527 13.19507 5959 ft 252 kts 265°
2026-05-04 19:24 55.45613 13.16489 5754 ft 251 kts 284°
2026-05-04 19:24 55.46332 13.13679 5605 ft 253 kts 297°
2026-05-04 19:25 55.47176 13.10952 5442 ft 253 kts 297°
2026-05-04 19:25 55.48028 13.08235 5283 ft 253 kts 297°
2026-05-04 19:25 55.48880 13.05529 5079 ft 252 kts 297°
2026-05-04 19:25 55.49726 13.02828 4882 ft 251 kts 297°
2026-05-04 19:26 55.50566 13.00131 4683 ft 251 kts 297°
2026-05-04 19:26 55.51400 12.97432 4483 ft 250 kts 297°
2026-05-04 19:26 55.52231 12.94734 4277 ft 250 kts 297°
2026-05-04 19:26 55.53064 12.92035 4092 ft 250 kts 297°
2026-05-04 19:27 55.53894 12.89348 3995 ft 250 kts 298°
2026-05-04 19:27 55.54968 12.86929 4002 ft 253 kts 319°
2026-05-04 19:27 55.56536 12.85530 4006 ft 258 kts 345°
2026-05-04 19:27 55.58334 12.85510 4005 ft 264 kts 11°
2026-05-04 19:28 55.60067 12.86641 4010 ft 267 kts 19°
2026-05-04 19:28 55.61785 12.87901 4007 ft 267 kts 22°
2026-05-04 19:28 55.63383 12.89622 4003 ft 270 kts 36°
2026-05-04 19:28 55.64787 12.91806 4000 ft 263 kts 39°
2026-05-04 19:29 55.66113 12.93894 3998 ft 248 kts 38°
2026-05-04 19:29 55.67391 12.95871 3998 ft 241 kts 38°
2026-05-04 19:29 55.68652 12.97816 3998 ft 240 kts 38°
2026-05-04 19:29 55.69905 12.99775 3997 ft 241 kts 38°
2026-05-04 19:30 55.71193 13.01672 3949 ft 239 kts 27°
2026-05-04 19:30 55.72661 13.02867 3697 ft 234 kts 17°
2026-05-04 19:30 55.74183 13.03843 3442 ft 231 kts 16°
2026-05-04 19:30 55.75697 13.04772 3192 ft 229 kts 15°
2026-05-04 19:31 55.77216 13.05570 3022 ft 226 kts
2026-05-04 19:31 55.78679 13.05118 3006 ft 204 kts 328°
2026-05-04 19:31 55.79626 13.03317 2997 ft 210 kts 293°
2026-05-04 19:31 55.79854 13.00764 2957 ft 210 kts 269°
2026-05-04 19:32 55.79758 12.98171 2985 ft 210 kts 266°
2026-05-04 19:32 55.79618 12.95579 2991 ft 210 kts 263°
2026-05-04 19:32 55.79159 12.93113 2995 ft 213 kts 241°
2026-05-04 19:32 55.78178 12.91131 3001 ft 216 kts 224°
2026-05-04 19:33 55.77047 12.89367 2997 ft 217 kts 224°
2026-05-04 19:33 55.75939 12.87639 2994 ft 206 kts 224°
2026-05-04 19:33 55.74878 12.85979 2996 ft 201 kts 225°
2026-05-04 19:33 55.73843 12.84360 2951 ft 200 kts 225°
2026-05-04 19:34 55.72803 12.82735 2752 ft 198 kts 225°
2026-05-04 19:34 55.71774 12.81127 2499 ft 196 kts 225°
2026-05-04 19:34 55.70754 12.79537 2232 ft 195 kts 225°
2026-05-04 19:34 55.69739 12.77954 1972 ft 194 kts 225°
2026-05-04 19:35 55.68735 12.76390 1755 ft 190 kts 225°
2026-05-04 19:35 55.67767 12.74885 1455 ft 180 kts 225°
2026-05-04 19:35 55.66856 12.73468 1210 ft 169 kts 225°
2026-05-04 19:35 55.66003 12.72142 983 ft 156 kts 224°
2026-05-04 19:36 55.65223 12.70930 777 ft 145 kts 224°
2026-05-04 19:36 55.64478 12.69772 582 ft 142 kts 224°
2026-05-04 19:36 55.63736 12.68618 381 ft 142 kts 224°
2026-05-04 19:36 55.62996 12.67470 192 ft 141 kts 224°
2026-05-04 19:37 55.62260 12.66329 20 ft 139 kts 223°
2026-05-04 19:37 55.61725 12.65493 19 ft 59 kts 220°
2026-05-04 19:37 55.61610 12.65223 19 ft 16 kts 250°
2026-05-04 19:37 55.61608 12.65078 17 ft 9 kts 283°
2026-05-04 19:38 55.61644 12.64958 18 ft 9 kts 303°
2026-05-04 19:38 55.61679 12.64888 17 ft 1 kts 316°
2026-05-04 19:38 55.61684 12.64879 17 ft 1 kts 316°
2026-05-04 19:38 55.61686 12.64876 17 ft 0 kts 315°
2026-05-04 19:39 55.61688 12.64873 17 ft 2 kts 316°
2026-05-04 19:39 55.61713 12.64837 19 ft 7 kts 326°
2026-05-04 19:39 55.61722 12.64827 19 ft 0 kts 332°
2026-05-04 19:39 55.61727 12.64823 19 ft 1 kts 333°
2026-05-04 19:40 55.61736 12.64817 19 ft 2 kts 336°
2026-05-04 19:40 55.61742 12.64812 19 ft 0 kts 336°
2026-05-04 19:40 55.61745 12.64809 19 ft 0 kts 338°
2026-05-04 19:41 55.61763 12.64798 20 ft 6 kts 341°
2026-05-04 19:41 55.61836 12.64790 18 ft 15 kts
2026-05-04 19:41 55.61944 12.64875 17 ft 12 kts 31°
2026-05-04 19:41 55.62008 12.64949 20 ft 10 kts 33°
2026-05-04 19:42 55.62068 12.65019 21 ft 11 kts 34°
2026-05-04 19:42 55.62109 12.65068 22 ft 0 kts 32°
2026-05-04 19:44 55.62125 12.65085 24 ft 5 kts 32°
2026-05-04 19:44 55.62167 12.65131 24 ft 10 kts 32°
2026-05-04 19:45 55.62230 12.65194 22 ft 9 kts 16°
2026-05-04 19:45 55.62296 12.65200 22 ft 11 kts
2026-05-04 19:45 55.62377 12.65193 21 ft 12 kts 354°
2026-05-04 19:45 55.62436 12.65270 19 ft 3 kts 81°
2026-05-04 19:46 55.62437 12.65296 19 ft 3 kts 86°
2026-05-04 19:46 55.62440 12.65350 18 ft 7 kts 86°
2026-05-04 19:46 55.62442 12.65474 18 ft 12 kts 91°
2026-05-04 19:46 55.62442 12.65627 18 ft 13 kts 87°
2026-05-04 19:47 55.62485 12.65689 17 ft 9 kts 354°
2026-05-04 19:47 55.62525 12.65688 17 ft 0 kts